[[{"header":{"parameterUnit":"m.s-1","parameterCategory":1,"la1":30.2992,"la2":30.254,"lo1":-89.0895,"lo2":-89.0443,"dy":0.0025,"dx":0.0025,"nx":19,"ny":19,"refTime":"2026-05-05T03:00:00:Z","depth":0,"parameterNumber":2,"parameterNumberName":"U-component_of_WINDS"},"data":[0,0,0,0.0524,0.0522,0.0427,0.0427,0.0314,0.0313,0,0,0,0,0,0,0,0,0,0,0,0.0561,0.0561,0.0524,0.0522,0.0427,0.0427,0.0314,0.0313,0,0,0,0,0,0,0,0,0,0,0,0.0561,0.0561,0.056,0.0522,0.0427,0.0426,0.0314,0.0382,0,0,0,0,0,0,0,0,0,0,0.0473,0.0516,0.0561,0.056,0.0521,0.0427,0.0426,0.0385,0.0378,0.0362,0,0.0353,0,0.0331,0.0306,0.0306,0,0,0,0.0515,0.0522,0.0489,0.056,0.0521,0.0427,0.0468,0.0381,0.0373,0.0352,0.0351,0.0346,0.0329,0.0306,0.0305,0.0242,0.0242,0,0,0.052,0.0548,0.0495,0.0484,0.0503,0.0471,0.0465,0.0376,0.0375,0.0351,0.0344,0.0328,0.0305,0.0304,0.0242,0.0242,0,0,0,0.054,0.0552,0.052,0.0489,0.0471,0.0468,0.0462,0.0379,0.0367,0.0342,0.0326,0.0304,0.0303,0.0242,0.0242,0.0271,0,0,0,0.0543,0.0564,0.0523,0.0539,0.0473,0.0425,0.0467,0.0373,0.0362,0.0327,0.0304,0.0302,0.0242,0.0242,0.027,0.028,0,0,0,0.0564,0.0566,0.0555,0.0541,0.0501,0.0426,0.0408,0.037,0.0352,0.0306,0.0302,0.0242,0.0242,0.0269,0.0278,0.027,0,0,0,0.0594,0.0583,0.0556,0.0537,0.0502,0.0445,0.0408,0.0364,0.0327,0.0304,0.0242,0.0242,0.0269,0.0277,0.0269,0.0268,0.0271,0,0,0.0595,0.0584,0.057,0.0543,0.0499,0.0458,0.0415,0.0355,0.0324,0.027,0.0268,0.027,0.0278,0.027,0.0275,0.0278,0,0,0,0.0579,0.0569,0.0551,0.0519,0.0474,0.0434,0.0377,0.0354,0.0307,0.0303,0.0265,0.0268,0.0262,0.026,0.0262,0.0254,0.0242,0.0242,0.0242,0.062,0.0582,0.0555,0.0505,0.0474,0.0415,0.0384,0.0343,0.0313,0.0304,0.0288,0.0296,0.0295,0.0296,0.0289,0.0285,0.0285,0.0285,0.0285,0.0616,0.0595,0.0556,0.0516,0.0475,0.044,0.0381,0.0361,0.032,0.0306,0.0299,0.0286,0.03,0.0291,0.0287,0.0287,0.0286,0.0286,0.0286,0.0637,0.0621,0.0594,0.0542,0.0505,0.0453,0.0416,0.0379,0.0344,0.0337,0.0314,0.0314,0.0307,0.0329,0.0329,0.0329,0.0329,0.0329,0.0329,0.067,0.0639,0.0614,0.0563,0.0536,0.0496,0.0434,0.0406,0.0364,0.034,0.034,0.0309,0.0309,0.0309,0.0329,0.0329,0.0329,0.0329,0.0329,0.0679,0.0671,0.0632,0.0605,0.0541,0.0506,0.0459,0.0403,0.0374,0.0356,0.0327,0.0333,0.0319,0.0317,0.0316,0.0337,0.0337,0.0337,0.0337,0.0697,0.0686,0.0637,0.0596,0.0551,0.0505,0.0457,0.0408,0.0356,0.0335,0.0326,0.0323,0.0323,0.0308,0.0306,0.0305,0.0322,0.0322,0.0322,0.0699,0.0682,0.0651,0.0602,0.0549,0.0503,0.0457,0.0408,0.0347,0.0321,0.0317,0.0317,0.0311,0.0312,0.0287,0.0285,0.0283,0,0]},{"header":{"parameterUnit":"m.s-1","parameterCategory":1,"la1":30.2992,"la2":30.254,"lo1":-89.0895,"lo2":-89.0443,"dy":0.0025,"dx":0.0025,"nx":19,"ny":19,"refTime":"2026-05-05T03:00:00:Z","depth":0,"parameterNumber":3,"parameterNumberName":"V-component_of_WINDS"},"data":[0,0,0,5.268,5.2683,5.2797,5.2797,5.295,5.2952,0,0,0,0,0,0,0,0,0,0,0,5.2656,5.2657,5.268,5.2683,5.2797,5.2797,5.295,5.2952,0,0,0,0,0,0,0,0,0,0,0,5.2655,5.2657,5.2659,5.2684,5.2797,5.2797,5.2949,5.286,0,0,0,0,0,0,0,0,0,0,5.2748,5.2735,5.2656,5.2659,5.2685,5.2796,5.2797,5.2856,5.2866,5.2903,0,5.2942,0,5.295,5.2963,5.2963,0,0,0,5.2676,5.2727,5.275,5.2659,5.2686,5.2796,5.2743,5.2861,5.2873,5.2917,5.2945,5.295,5.2952,5.2964,5.2965,5.321,5.3211,0,0,5.267,5.268,5.2742,5.2758,5.2745,5.274,5.2747,5.2868,5.2898,5.2945,5.2953,5.2955,5.2965,5.2966,5.3208,5.321,0,0,0,5.2657,5.2676,5.2696,5.2752,5.2772,5.2743,5.2752,5.2892,5.2898,5.2955,5.2956,5.2966,5.2968,5.3207,5.3209,5.329,0,0,0,5.2653,5.2669,5.2693,5.2701,5.277,5.2834,5.2774,5.2889,5.2903,5.2956,5.2966,5.2969,5.3205,5.3208,5.3285,5.3326,0,0,0,5.2645,5.2668,5.2687,5.2701,5.2751,5.2832,5.2844,5.2892,5.2904,5.2963,5.297,5.3204,5.3207,5.328,5.3318,5.339,0,0,0,5.264,5.2761,5.2689,5.2824,5.275,5.2883,5.2843,5.2942,5.3003,5.2967,5.3205,5.3209,5.3278,5.3313,5.3385,5.3451,5.3481,0,0,5.2798,5.278,5.2858,5.2797,5.2946,5.2865,5.3024,5.307,5.3066,5.3161,5.3167,5.3287,5.3317,5.3389,5.3649,5.3673,0,0,0,5.2911,5.2967,5.3004,5.3063,5.3101,5.3134,5.3154,5.317,5.325,5.3118,5.3334,5.3352,5.3394,5.3424,5.3444,5.3477,5.3225,5.3224,5.3224,5.3149,5.3136,5.3262,5.3262,5.3319,5.3336,5.3379,5.3402,5.3375,5.3426,5.3453,5.3612,5.3649,5.3664,5.3698,5.349,5.349,5.3491,5.3491,5.3375,5.3449,5.3407,5.3513,5.3497,5.3586,5.3606,5.3582,5.3659,5.3592,5.3628,5.3553,5.3691,5.3719,5.3497,5.3496,5.3495,5.3494,5.3494,5.3526,5.3559,5.3576,5.3656,5.3718,5.3712,5.3787,5.3771,5.3756,5.3792,5.3816,5.3814,5.3807,5.3805,5.3806,5.3806,5.3807,5.3807,5.3808,5.3674,5.3691,5.3757,5.3804,5.3837,5.3877,5.3893,5.3923,5.3952,5.3934,5.3934,5.3897,5.3708,5.3658,5.3816,5.3815,5.3813,5.3813,5.3812,5.3902,5.3847,5.395,5.3982,5.4032,5.4091,5.407,5.4132,5.4155,5.4191,5.4146,5.4011,5.3991,5.3975,5.3933,5.4152,5.4152,5.4152,5.4152,5.4027,5.4015,5.4113,5.4164,5.4213,5.4202,5.4312,5.4324,5.4327,5.4339,5.4306,5.425,5.4235,5.4224,5.4202,5.4163,5.4435,5.4436,5.4436,5.4164,5.4155,5.4254,5.4257,5.4294,5.4325,5.4426,5.4484,5.4476,5.4447,5.4347,5.4335,5.4245,5.4218,5.4185,5.4152,5.4079,0,0]}]]